QPF
0.00 0.00 0.00 0.00 0.00 0.00 0.00 0.00 0.01 0.01 0.01 0.00 0.00 0.01 0.00 0.01 0.01 0.01 0.01 0.00 0.01 0.01 0.01 0.00 0.01 0.01 0.02 0.01 0.01 0.02 0.03 0.04 0.05 0.04 0.03 0.03 0.04 0.04 0.04 0.04 0.03 0.02 0.02
0.01 0.01 0.00 0.00 0.00 0.00 0.00 0.00 0.00 0.01 0.01 0.01 0.01 0.00 0.00 0.00 0.01 0.01 0.01 0.00 0.01 0.01 0.01 0.01 0.01 0.01 0.01 0.01 0.01 0.02 0.03 0.03 0.03 0.04 0.03 0.04 0.05 0.05 0.04 0.03 0.03 0.02 0.02
0.01 0.01 0.01 0.01 0.00 0.00 0.00 0.00 0.01 0.01 0.01 0.01 0.01 0.01 0.00 0.00 0.01 0.01 0.01 0.01 0.01 0.01 0.01 0.01 0.01 0.01 0.01 0.01 0.01 0.02 0.03 0.03 0.03 0.03 0.03 0.04 0.04 0.05 0.06 0.04 0.03 0.03 0.03
0.01 0.01 0.01 0.01 0.01 0.00 0.00 0.01 0.01 0.01 0.01 0.01 0.01 0.01 0.01 0.00 0.00 0.01 0.01 0.01 0.01 0.01 0.01 0.01 0.01 0.01 0.01 0.01 0.02 0.02 0.03 0.04 0.03 0.03 0.04 0.04 0.05 0.04 0.06 0.06 0.04 0.04 0.03
0.01 0.01 0.01 0.01 0.01 0.01 0.00 0.00 0.00 0.01 0.01 0.01 0.01 0.01 0.01 0.01 0.01 0.01 0.03 0.03 0.02 0.01 0.01 0.01 0.01 0.01 0.01 0.01 0.02 0.03 0.03 0.04 0.04 0.04 0.04 0.05 0.05 0.05 0.06 0.05 0.04 0.04 0.03
0.01 0.00 0.00 0.00 0.00 0.00 0.00 0.00 0.00 0.01 0.01 0.02 0.02 0.01 0.01 0.01 0.01 0.02 0.03 0.03 0.02 0.02 0.02 0.02 0.02 0.02 0.01 0.01 0.02 0.03 0.03 0.05 0.06 0.06 0.06 0.05 0.04 0.04 0.04 0.05 0.04 0.04 0.04
0.01 0.01 0.00 0.00 0.00 0.00 0.00 0.00 0.00 0.00 0.01 0.02 0.02 0.02 0.01 0.01 0.01 0.02 0.03 0.02 0.02 0.02 0.02 0.02 0.02 0.02 0.02 0.02 0.02 0.02 0.03 0.03 0.05 0.06 0.07 0.05 0.03 0.02 0.03 0.04 0.04 0.04 0.04
0.01 0.01 0.01 0.00 0.00 0.00 0.00 0.00 0.00 0.00 0.01 0.01 0.02 0.01 0.01 0.02 0.02 0.02 0.03 0.02 0.01 0.01 0.02 0.02 0.02 0.02 0.02 0.03 0.03 0.03 0.03 0.03 0.04 0.05 0.05 0.05 0.04 0.03 0.04 0.05 0.05 0.05 0.05
0.01 0.01 0.01 0.01 0.00 0.01 0.01 0.00 0.00 0.01 0.01 0.01 0.01 0.01 0.02 0.02 0.02 0.02 0.02 0.02 0.01 0.01 0.01 0.02 0.02 0.02 0.02 0.03 0.04 0.04 0.02 0.02 0.03 0.04 0.05 0.05 0.05 0.05 0.06 0.07 0.08 0.08 0.08
0.01 0.01 0.01 0.01 0.01 0.01 0.02 0.01 0.00 0.01 0.01 0.01 0.01 0.01 0.01 0.02 0.03 0.03 0.03 0.02 0.02 0.02 0.02 0.02 0.02 0.02 0.03 0.03 0.04 0.04 0.03 0.03 0.03 0.03 0.04 0.04 0.05 0.06 0.06 0.07 0.08 0.09 0.08
0.01 0.01 0.01 0.01 0.01 0.01 0.02 0.01 0.01 0.01 0.01 0.01 0.01 0.01 0.01 0.01 0.03 0.04 0.03 0.03 0.03 0.03 0.03 0.03 0.02 0.03 0.03 0.03 0.04 0.03 0.03 0.03 0.03 0.03 0.04 0.04 0.04 0.05 0.06 0.06 0.07 0.08 0.09
0.01 0.01 0.01 0.01 0.01 0.01 0.02 0.02 0.01 0.01 0.01 0.01 0.01 0.01 0.01 0.01 0.02 0.03 0.04 0.03 0.03 0.04 0.04 0.03 0.03 0.03 0.04 0.04 0.03 0.02 0.02 0.02 0.02 0.02 0.03 0.03 0.04 0.05 0.05 0.05 0.06 0.07 0.08
0.01 0.01 0.01 0.01 0.01 0.01 0.01 0.02 0.02 0.01 0.01 0.01 0.01 0.01 0.01 0.01 0.01 0.02 0.03 0.03 0.03 0.03 0.03 0.03 0.03 0.04 0.04 0.03 0.03 0.03 0.02 0.02 0.02 0.02 0.02 0.02 0.03 0.03 0.04 0.05 0.06 0.06 0.08
0.01 0.01 0.01 0.00 0.00 0.01 0.01 0.02 0.02 0.02 0.02 0.02 0.01 0.01 0.01 0.01 0.01 0.02 0.03 0.03 0.03 0.03 0.03 0.03 0.03 0.03 0.03 0.03 0.03 0.02 0.02 0.02 0.02 0.02 0.02 0.02 0.02 0.03 0.03 0.04 0.05 0.06 0.07
0.01 0.01 0.01 0.01 0.01 0.01 0.01 0.01 0.02 0.02 0.03 0.04 0.04 0.03 0.03 0.03 0.03 0.03 0.04 0.05 0.04 0.04 0.04 0.03 0.03 0.02 0.03 0.03 0.03 0.02 0.02 0.02 0.02 0.02 0.03 0.03 0.03 0.03 0.03 0.03 0.04 0.05 0.06
0.01 0.01 0.01 0.01 0.01 0.01 0.00 0.00 0.01 0.01 0.02 0.02 0.03 0.03 0.03 0.03 0.03 0.03 0.03 0.03 0.03 0.03 0.03 0.03 0.03 0.03 0.03 0.03 0.02 0.02 0.02 0.02 0.02 0.02 0.02 0.03 0.03 0.03 0.03 0.03 0.04 0.05 0.06
0.01 0.01 0.01 0.01 0.01 0.01 0.01 0.01 0.01 0.01 0.01 0.01 0.02 0.02 0.02 0.02 0.02 0.03 0.03 0.02 0.02 0.02 0.03 0.03 0.03 0.03 0.03 0.03 0.03 0.03 0.03 0.02 0.02 0.02 0.02 0.03 0.03 0.03 0.03 0.03 0.04 0.04 0.05
0.00 0.00 0.00 0.01 0.01 0.01 0.01 0.01 0.01 0.01 0.01 0.01 0.01 0.01 0.01 0.02 0.02 0.02 0.02 0.01 0.01 0.01 0.02 0.03 0.03 0.03 0.03 0.03 0.04 0.04 0.04 0.04 0.03 0.03 0.03 0.03 0.03 0.03 0.03 0.03 0.04 0.04 0.05
0.00 0.00 0.00 0.00 0.01 0.01 0.01 0.01 0.01 0.01 0.01 0.01 0.01 0.01 0.01 0.01 0.01 0.01 0.01 0.02 0.02 0.02 0.02 0.02 0.03 0.03 0.03 0.03 0.03 0.03 0.03 0.03 0.03 0.03 0.03 0.03 0.03 0.03 0.04 0.04 0.04 0.04 0.05
0.00 0.00 0.00 0.00 0.00 0.00 0.01 0.01 0.01 0.01 0.01 0.01 0.01 0.01 0.01 0.01 0.01 0.01 0.01 0.01 0.02 0.02 0.02 0.02 0.02 0.02 0.02 0.02 0.02 0.02 0.02 0.02 0.02 0.02 0.02 0.03 0.03 0.03 0.04 0.04 0.04 0.04 0.05
0.00 0.00 0.00 0.00 0.00 0.01 0.01 0.01 0.01 0.01 0.01 0.01 0.01 0.01 0.01 0.02 0.01 0.01 0.01 0.01 0.01 0.01 0.02 0.02 0.02 0.02 0.02 0.02 0.02 0.02 0.02 0.02 0.02 0.02 0.02 0.02 0.02 0.02 0.03 0.03 0.04 0.04 0.04
0.00 0.00 0.00 0.00 0.01 0.01 0.01 0.01 0.01 0.01 0.01 0.01 0.01 0.01 0.01 0.01 0.01 0.01 0.01 0.01 0.01 0.01 0.01 0.02 0.02 0.01 0.02 0.02 0.02 0.02 0.02 0.02 0.02 0.01 0.02 0.02 0.02 0.02 0.02 0.02 0.03 0.03 0.03
0.01 0.01 0.01 0.01 0.01 0.01 0.01 0.01 0.01 0.01 0.01 0.01 0.01 0.01 0.01 0.01 0.01 0.01 0.01 0.01 0.01 0.01 0.01 0.01 0.02 0.01 0.01 0.01 0.01 0.02 0.02 0.02 0.02 0.02 0.02 0.02 0.02 0.02 0.02 0.02 0.02 0.03 0.03
0.01 0.01 0.01 0.01 0.01 0.01 0.01 0.01 0.01 0.01 0.01 0.01 0.01 0.01 0.01 0.01 0.01 0.01 0.01 0.01 0.01 0.01 0.01 0.01 0.01 0.01 0.01 0.01 0.01 0.01 0.01 0.01 0.02 0.02 0.02 0.02 0.01 0.01 0.02 0.02 0.02 0.02 0.03
0.01 0.01 0.01 0.01 0.01 0.01 0.01 0.01 0.01 0.01 0.01 0.01 0.01 0.01 0.01 0.01 0.01 0.01 0.01 0.01 0.01 0.01 0.01 0.01 0.01 0.01 0.01 0.01 0.01 0.01 0.01 0.01 0.01 0.02 0.02 0.02 0.02 0.01 0.02 0.02 0.02 0.02 0.02
0.01 0.01 0.01 0.01 0.01 0.01 0.01 0.01 0.01 0.01 0.01 0.01 0.01 0.01 0.01 0.01 0.01 0.01 0.01 0.01 0.01 0.01 0.01 0.01 0.01 0.01 0.01 0.01 0.01 0.01 0.01 0.01 0.01 0.02 0.03 0.03 0.02 0.02 0.01 0.02 0.02 0.02 0.02
MSLP
1024.23 1025.10 1025.96 1026.75 1027.47 1028.09 1028.64 1029.12 1029.57 1030.01 1030.45 1030.87 1031.28 1031.63 1031.93 1032.14 1032.28 1032.35 1032.37 1032.38 1032.40 1032.43 1032.49 1032.57 1032.63 1032.65 1032.62 1032.50 1032.31 1032.05 1031.74 1031.43 1031.12 1030.85 1030.61 1030.39 1030.18 1029.94 1029.66 1029.33 1028.92 1028.47 1027.98
1023.86 1024.74 1025.59 1026.37 1027.08 1027.71 1028.26 1028.78 1029.26 1029.73 1030.20 1030.65 1031.06 1031.42 1031.70 1031.90 1032.02 1032.07 1032.07 1032.05 1032.05 1032.05 1032.09 1032.13 1032.16 1032.15 1032.09 1031.96 1031.75 1031.50 1031.21 1030.93 1030.66 1030.43 1030.24 1030.07 1029.91 1029.73 1029.50 1029.20 1028.84 1028.42 1027.96
1023.45 1024.36 1025.21 1026.00 1026.71 1027.34 1027.91 1028.45 1028.96 1029.46 1029.95 1030.41 1030.83 1031.18 1031.44 1031.62 1031.71 1031.74 1031.72 1031.68 1031.65 1031.63 1031.64 1031.65 1031.65 1031.62 1031.54 1031.38 1031.17 1030.91 1030.63 1030.36 1030.12 1029.92 1029.76 1029.63 1029.51 1029.37 1029.18 1028.93 1028.62 1028.24 1027.83
1023.00 1023.95 1024.82 1025.62 1026.34 1026.99 1027.58 1028.14 1028.69 1029.21 1029.72 1030.19 1030.61 1030.94 1031.19 1031.34 1031.40 1031.40 1031.36 1031.30 1031.25 1031.22 1031.21 1031.20 1031.18 1031.12 1031.01 1030.83 1030.60 1030.33 1030.04 1029.76 1029.52 1029.32 1029.17 1029.06 1028.96 1028.85 1028.70 1028.49 1028.23 1027.90 1027.54
1022.53 1023.52 1024.42 1025.25 1025.99 1026.66 1027.29 1027.89 1028.46 1029.01 1029.54 1030.02 1030.43 1030.75 1030.97 1031.10 1031.13 1031.11 1031.04 1030.97 1030.90 1030.86 1030.83 1030.81 1030.77 1030.68 1030.54 1030.33 1030.06 1029.76 1029.44 1029.13 1028.86 1028.65 1028.49 1028.37 1028.27 1028.18 1028.05 1027.89 1027.67 1027.40 1027.10
1022.08 1023.11 1024.05 1024.90 1025.67 1026.38 1027.05 1027.69 1028.30 1028.89 1029.44 1029.93 1030.33 1030.64 1030.83 1030.92 1030.93 1030.88 1030.79 1030.69 1030.61 1030.56 1030.51 1030.47 1030.40 1030.28 1030.10 1029.85 1029.55 1029.20 1028.83 1028.48 1028.17 1027.92 1027.72 1027.59 1027.48 1027.39 1027.29 1027.15 1026.98 1026.77 1026.52
1021.73 1022.78 1023.74 1024.62 1025.43 1026.18 1026.89 1027.58 1028.24 1028.86 1029.43 1029.92 1030.32 1030.60 1030.77 1030.82 1030.79 1030.71 1030.59 1030.47 1030.37 1030.29 1030.22 1030.15 1030.05 1029.89 1029.68 1029.38 1029.02 1028.62 1028.21 1027.81 1027.45 1027.16 1026.93 1026.77 1026.65 1026.56 1026.47 1026.37 1026.24 1026.07 1025.89
1021.54 1022.59 1023.57 1024.47 1025.31 1026.10 1026.85 1027.58 1028.28 1028.93 1029.51 1030.00 1030.38 1030.63 1030.76 1030.77 1030.70 1030.58 1030.42 1030.27 1030.14 1030.02 1029.92 1029.81 1029.67 1029.48 1029.21 1028.88 1028.47 1028.03 1027.57 1027.14 1026.74 1026.41 1026.16 1025.98 1025.85 1025.77 1025.69 1025.61 1025.52 1025.40 1025.26
1021.59 1022.62 1023.58 1024.49 1025.34 1026.16 1026.95 1027.70 1028.42 1029.09 1029.66 1030.14 1030.48 1030.69 1030.77 1030.74 1030.62 1030.44 1030.24 1030.05 1029.87 1029.72 1029.58 1029.43 1029.24 1029.01 1028.70 1028.33 1027.90 1027.43 1026.95 1026.50 1026.09 1025.75 1025.49 1025.30 1025.18 1025.10 1025.04 1024.98 1024.92 1024.83 1024.72
1021.90 1022.88 1023.81 1024.70 1025.56 1026.38 1027.18 1027.94 1028.66 1029.31 1029.86 1030.30 1030.60 1030.75 1030.77 1030.67 1030.49 1030.26 1030.02 1029.78 1029.56 1029.36 1029.18 1028.99 1028.77 1028.50 1028.17 1027.77 1027.33 1026.86 1026.39 1025.94 1025.54 1025.22 1024.97 1024.80 1024.69 1024.62 1024.57 1024.53 1024.48 1024.41 1024.31
1022.46 1023.37 1024.26 1025.11 1025.94 1026.74 1027.53 1028.27 1028.96 1029.56 1030.07 1030.44 1030.67 1030.75 1030.70 1030.54 1030.31 1030.03 1029.73 1029.45 1029.20 1028.97 1028.75 1028.53 1028.28 1027.99 1027.65 1027.26 1026.83 1026.37 1025.93 1025.52 1025.16 1024.86 1024.65 1024.50 1024.40 1024.34 1024.30 1024.26 1024.21 1024.13 1024.04
1023.24 1024.07 1024.89 1025.68 1026.46 1027.22 1027.95 1028.65 1029.27 1029.81 1030.23 1030.52 1030.67 1030.67 1030.55 1030.33 1030.04 1029.73 1029.40 1029.09 1028.82 1028.57 1028.33 1028.09 1027.84 1027.54 1027.21 1026.84 1026.43 1026.02 1025.62 1025.26 1024.95 1024.70 1024.52 1024.39 1024.31 1024.25 1024.21 1024.15 1024.08 1023.98 1023.85
1024.17 1024.91 1025.64 1026.36 1027.07 1027.76 1028.42 1029.03 1029.57 1030.01 1030.34 1030.53 1030.58 1030.51 1030.32 1030.05 1029.72 1029.38 1029.04 1028.73 1028.45 1028.20 1027.97 1027.73 1027.49 1027.21 1026.90 1026.55 1026.19 1025.83 1025.48 1025.17 1024.90 1024.69 1024.54 1024.43 1024.35 1024.28 1024.21 1024.12 1024.01 1023.87 1023.71
1025.16 1025.81 1026.45 1027.09 1027.71 1028.31 1028.88 1029.39 1029.82 1030.16 1030.37 1030.46 1030.42 1030.27 1030.02 1029.71 1029.37 1029.02 1028.69 1028.40 1028.14 1027.91 1027.69 1027.48 1027.25 1027.00 1026.72 1026.41 1026.09 1025.77 1025.47 1025.20 1024.97 1024.79 1024.65 1024.54 1024.44 1024.34 1024.23 1024.10 1023.93 1023.74 1023.53
1026.13 1026.68 1027.24 1027.78 1028.31 1028.82 1029.29 1029.69 1030.01 1030.24 1030.34 1030.33 1030.20 1029.98 1029.69 1029.36 1029.01 1028.68 1028.37 1028.11 1027.89 1027.69 1027.51 1027.33 1027.13 1026.90 1026.65 1026.37 1026.08 1025.79 1025.52 1025.28 1025.07 1024.89 1024.75 1024.62 1024.49 1024.35 1024.19 1024.00 1023.79 1023.54 1023.27
1027.01 1027.47 1027.94 1028.40 1028.84 1029.26 1029.63 1029.93 1030.14 1030.25 1030.26 1030.16 1029.96 1029.68 1029.36 1029.01 1028.68 1028.37 1028.10 1027.87 1027.69 1027.53 1027.38 1027.23 1027.05 1026.85 1026.62 1026.36 1026.09 1025.81 1025.55 1025.32 1025.10 1024.92 1024.75 1024.59 1024.43 1024.24 1024.03 1023.79 1023.52 1023.23 1022.92
1027.75 1028.13 1028.52 1028.90 1029.27 1029.61 1029.89 1030.10 1030.22 1030.24 1030.16 1029.98 1029.72 1029.40 1029.05 1028.70 1028.38 1028.09 1027.85 1027.66 1027.51 1027.38 1027.26 1027.12 1026.96 1026.77 1026.54 1026.28 1026.01 1025.74 1025.47 1025.23 1025.00 1024.80 1024.61 1024.41 1024.21 1023.99 1023.74 1023.46 1023.15 1022.83 1022.49
1028.33 1028.65 1028.98 1029.29 1029.60 1029.87 1030.08 1030.22 1030.26 1030.21 1030.06 1029.82 1029.51 1029.16 1028.79 1028.44 1028.11 1027.84 1027.62 1027.45 1027.31 1027.19 1027.08 1026.94 1026.78 1026.58 1026.34 1026.08 1025.79 1025.50 1025.23 1024.97 1024.73 1024.50 1024.29 1024.07 1023.85 1023.60 1023.33 1023.03 1022.71 1022.37 1022.02
1028.77 1029.04 1029.31 1029.58 1029.84 1030.06 1030.22 1030.30 1030.29 1030.18 1029.98 1029.69 1029.35 1028.97 1028.58 1028.21 1027.88 1027.61 1027.38 1027.21 1027.06 1026.94 1026.81 1026.65 1026.47 1026.25 1025.99 1025.70 1025.40 1025.09 1024.80 1024.52 1024.27 1024.03 1023.81 1023.58 1023.35 1023.10 1022.83 1022.53 1022.21 1021.88 1021.53
1029.09 1029.32 1029.56 1029.80 1030.02 1030.20 1030.32 1030.36 1030.31 1030.16 1029.92 1029.59 1029.22 1028.81 1028.40 1028.02 1027.67 1027.37 1027.13 1026.93 1026.76 1026.60 1026.44 1026.25 1026.03 1025.77 1025.48 1025.16 1024.83 1024.51 1024.20 1023.91 1023.65 1023.41 1023.19 1022.98 1022.76 1022.53 1022.27 1022.00 1021.69 1021.37 1021.04
1029.35 1029.54 1029.76 1029.97 1030.16 1030.31 1030.40 1030.40 1030.32 1030.13 1029.86 1029.51 1029.11 1028.68 1028.25 1027.84 1027.47 1027.15 1026.87 1026.63 1026.41 1026.21 1025.99 1025.75 1025.48 1025.18 1024.84 1024.49 1024.14 1023.79 1023.47 1023.17 1022.91 1022.68 1022.48 1022.28 1022.09 1021.88 1021.65 1021.41 1021.13 1020.83 1020.50
1029.57 1029.75 1029.94 1030.12 1030.28 1030.40 1030.45 1030.42 1030.30 1030.09 1029.79 1029.42 1029.00 1028.55 1028.11 1027.67 1027.28 1026.92 1026.60 1026.31 1026.04 1025.78 1025.50 1025.20 1024.87 1024.51 1024.13 1023.74 1023.35 1022.98 1022.64 1022.33 1022.07 1021.85 1021.65 1021.48 1021.31 1021.13 1020.94 1020.72 1020.47 1020.19 1019.87
1029.82 1029.97 1030.13 1030.27 1030.40 1030.47 1030.48 1030.41 1030.26 1030.02 1029.70 1029.31 1028.88 1028.42 1027.96 1027.51 1027.09 1026.69 1026.33 1026.00 1025.67 1025.34 1025.00 1024.64 1024.24 1023.82 1023.38 1022.94 1022.51 1022.10 1021.73 1021.40 1021.12 1020.89 1020.70 1020.53 1020.37 1020.22 1020.05 1019.85 1019.62 1019.36 1019.06
1030.09 1030.21 1030.32 1030.42 1030.49 1030.52 1030.48 1030.36 1030.17 1029.90 1029.56 1029.17 1028.73 1028.26 1027.79 1027.33 1026.89 1026.47 1026.08 1025.69 1025.31 1024.92 1024.50 1024.06 1023.60 1023.11 1022.60 1022.09 1021.60 1021.14 1020.72 1020.35 1020.04 1019.78 1019.57 1019.39 1019.23 1019.08 1018.92 1018.73 1018.52 1018.27 1017.98
1030.38 1030.46 1030.52 1030.56 1030.57 1030.52 1030.42 1030.26 1030.03 1029.74 1029.38 1028.97 1028.53 1028.07 1027.60 1027.14 1026.68 1026.24 1025.81 1025.37 1024.93 1024.47 1023.99 1023.48 1022.93 1022.36 1021.77 1021.19 1020.62 1020.08 1019.59 1019.16 1018.79 1018.48 1018.22 1018.01 1017.84 1017.67 1017.51 1017.33 1017.12 1016.89 1016.61
1030.68 1030.70 1030.69 1030.66 1030.59 1030.48 1030.32 1030.11 1029.84 1029.52 1029.15 1028.74 1028.30 1027.84 1027.37 1026.90 1026.43 1025.97 1025.49 1025.01 1024.51 1023.99 1023.43 1022.83 1022.20 1021.54 1020.86 1020.19 1019.53 1018.90 1018.32 1017.81 1017.36 1016.98 1016.66 1016.41 1016.19 1016.00 1015.82 1015.65 1015.45 1015.23 1014.98
Thickness
5412 5409 5407 5405 5404 5402 5401 5400 5399 5399 5398 5397 5396 5395 5394 5393 5392 5390 5390 5389 5388 5388 5387 5387 5387 5387 5387 5388 5388 5389 5389 5391 5396 5405 5406 5410 5413 5416 5420 5423 5426 5429 5433
5401 5398 5396 5394 5392 5390 5390 5389 5388 5387 5386 5385 5384 5383 5381 5380 5379 5377 5377 5376 5375 5375 5374 5374 5374 5374 5374 5374 5375 5375 5377 5379 5382 5389 5393 5395 5399 5402 5407 5410 5412 5416 5419
5390 5387 5384 5382 5380 5379 5379 5378 5376 5375 5374 5372 5371 5370 5369 5368 5367 5365 5364 5364 5363 5363 5362 5362 5362 5361 5361 5361 5362 5363 5365 5368 5370 5374 5380 5382 5386 5389 5393 5396 5399 5402 5405
5380 5377 5374 5371 5369 5368 5367 5366 5364 5363 5361 5360 5358 5357 5357 5356 5355 5354 5353 5352 5352 5352 5351 5350 5350 5350 5350 5350 5351 5352 5353 5355 5357 5361 5366 5370 5373 5376 5378 5382 5387 5390 5392
5368 5366 5363 5360 5358 5356 5355 5354 5352 5350 5349 5347 5346 5345 5345 5344 5343 5342 5342 5342 5342 5341 5340 5339 5339 5339 5339 5339 5340 5341 5342 5343 5345 5349 5354 5357 5360 5362 5365 5368 5373 5377 5380
5357 5354 5351 5349 5346 5345 5343 5342 5340 5338 5336 5334 5333 5333 5332 5332 5332 5333 5333 5332 5331 5330 5329 5328 5328 5328 5327 5328 5329 5330 5331 5332 5334 5337 5341 5345 5349 5350 5353 5356 5359 5363 5369
5346 5343 5340 5337 5335 5333 5331 5329 5327 5325 5324 5322 5322 5321 5320 5320 5321 5322 5322 5321 5319 5318 5317 5317 5317 5316 5316 5316 5317 5319 5320 5321 5324 5326 5329 5333 5337 5340 5342 5345 5348 5352 5356
5334 5331 5329 5326 5324 5321 5319 5317 5315 5313 5312 5311 5310 5309 5308 5308 5310 5311 5312 5310 5308 5307 5306 5306 5305 5305 5305 5306 5307 5309 5310 5311 5313 5316 5319 5323 5326 5328 5330 5335 5338 5342 5345
5323 5321 5318 5316 5313 5310 5307 5305 5303 5301 5300 5299 5298 5298 5297 5297 5298 5300 5300 5298 5297 5297 5296 5295 5295 5295 5296 5297 5298 5299 5300 5301 5303 5305 5309 5312 5316 5319 5320 5323 5326 5328 5334
5312 5310 5307 5304 5301 5299 5296 5293 5292 5290 5289 5288 5287 5286 5285 5286 5287 5288 5288 5287 5286 5286 5286 5286 5286 5286 5287 5288 5288 5288 5290 5291 5292 5295 5298 5301 5305 5308 5310 5311 5314 5317 5322
5300 5297 5294 5292 5289 5287 5285 5283 5281 5279 5278 5275 5275 5274 5274 5274 5275 5276 5277 5276 5275 5276 5276 5277 5277 5277 5278 5279 5279 5279 5280 5281 5282 5284 5286 5290 5294 5298 5300 5301 5303 5306 5311
5287 5284 5281 5279 5277 5276 5273 5270 5269 5267 5265 5263 5263 5262 5263 5263 5264 5265 5266 5266 5266 5265 5266 5267 5267 5268 5269 5270 5270 5270 5271 5271 5271 5273 5275 5279 5283 5287 5289 5291 5294 5297 5300
5274 5271 5269 5267 5264 5263 5260 5258 5256 5255 5253 5253 5252 5252 5252 5253 5253 5254 5255 5255 5256 5255 5256 5256 5257 5258 5258 5259 5259 5260 5260 5260 5260 5262 5265 5268 5272 5275 5278 5282 5285 5287 5291
5261 5259 5257 5255 5252 5250 5248 5247 5245 5244 5242 5242 5241 5241 5241 5241 5242 5243 5243 5244 5245 5245 5245 5245 5246 5246 5247 5247 5248 5248 5248 5249 5250 5252 5255 5258 5261 5265 5268 5271 5274 5278 5281
5249 5247 5245 5243 5241 5238 5237 5235 5234 5233 5232 5231 5231 5230 5230 5231 5232 5233 5234 5234 5234 5234 5234 5234 5234 5234 5234 5235 5236 5236 5237 5238 5239 5241 5243 5246 5250 5254 5257 5259 5262 5266 5269
5237 5235 5233 5231 5229 5227 5226 5224 5223 5223 5223 5223 5222 5221 5221 5222 5223 5224 5224 5224 5224 5224 5223 5222 5221 5221 5222 5222 5223 5224 5225 5226 5228 5230 5232 5235 5238 5242 5245 5249 5252 5255 5259
5225 5223 5221 5220 5218 5216 5215 5213 5212 5212 5211 5211 5211 5211 5211 5212 5212 5213 5213 5213 5213 5212 5210 5209 5209 5210 5210 5211 5211 5212 5214 5216 5218 5220 5223 5225 5228 5231 5235 5239 5242 5245 5249
5214 5212 5211 5209 5206 5205 5203 5202 5201 5200 5200 5199 5199 5199 5200 5201 5201 5201 5202 5202 5200 5199 5198 5198 5198 5199 5199 5200 5201 5202 5204 5206 5209 5211 5214 5216 5218 5222 5226 5229 5232 5235 5239
5204 5202 5200 5198 5197 5195 5193 5192 5190 5189 5189 5188 5189 5189 5189 5189 5190 5190 5190 5188 5188 5187 5187 5187 5188 5188 5189 5190 5191 5193 5194 5197 5199 5202 5205 5207 5210 5213 5216 5220 5223 5227 5231
5194 5193 5191 5189 5187 5185 5184 5182 5181 5179 5179 5178 5178 5178 5178 5178 5178 5178 5177 5177 5177 5177 5177 5177 5178 5178 5179 5180 5182 5184 5185 5188 5190 5193 5196 5199 5202 5205 5209 5212 5216 5219 5222
5184 5182 5181 5179 5177 5175 5174 5173 5171 5170 5169 5169 5168 5168 5169 5168 5167 5167 5167 5167 5166 5166 5167 5167 5168 5169 5170 5172 5173 5175 5177 5179 5182 5185 5188 5191 5194 5198 5202 5205 5208 5212 5215
5174 5172 5170 5169 5167 5166 5165 5164 5162 5162 5161 5160 5160 5159 5160 5159 5158 5157 5157 5157 5157 5157 5158 5158 5160 5161 5162 5163 5165 5167 5169 5172 5175 5178 5181 5184 5188 5191 5194 5198 5202 5205 5208
5165 5163 5161 5160 5158 5158 5156 5155 5154 5153 5152 5152 5151 5151 5151 5150 5149 5149 5149 5149 5149 5149 5150 5151 5152 5154 5155 5156 5158 5160 5162 5165 5168 5171 5174 5178 5181 5185 5188 5192 5195 5198 5202
5155 5153 5151 5150 5149 5147 5146 5145 5145 5144 5144 5143 5143 5143 5142 5142 5141 5141 5141 5141 5142 5143 5143 5144 5145 5147 5149 5150 5152 5155 5157 5160 5163 5166 5170 5173 5176 5179 5183 5186 5190 5193 5196
5146 5143 5142 5140 5139 5138 5137 5136 5136 5135 5135 5135 5135 5135 5134 5134 5134 5134 5135 5135 5135 5137 5138 5139 5140 5141 5143 5145 5147 5150 5153 5156 5159 5162 5166 5169 5172 5175 5178 5181 5184 5188 5191
5136 5134 5132 5131 5130 5129 5128 5128 5127 5127 5126 5127 5126 5126 5126 5127 5127 5128 5128 5129 5130 5131 5133 5134 5136 5137 5138 5141 5143 5146 5149 5153 5156 5159 5162 5166 5169 5172 5175 5177 5180 5183 5186